#timestamp,LO_Frequency,Hit 
1498546815.5,286046997.1,N
1498546835.4,286046999.0,N
1498546855.2,286046999.3,N
1498546875.0,286046999.4,N
1498546875.9,286046999.4,N
1498546895.8,286047000.5,N
1498546915.6,286047000.7,N
1498546935.4,286046996.8,N
1498546955.2,286046995.2,N
1498546975.1,286046995.0,N
1498546976.0,286046995.0,N
1498546995.8,286046997.9,N
1498547015.6,286046997.0,N
1498547035.5,286046999.4,N
1498547055.3,286046999.5,N
1498547075.1,286046994.9,N
1498547095.9,286046997.5,N
1498547115.7,286046999.0,N
1498547135.5,286046999.5,N
1498547155.4,286046997.1,N
1498547175.2,286046997.5,N
1498547195.0,286046997.0,N
1498547195.9,286046997.0,N
1498547215.8,286046997.3,N
1498547235.6,286046993.7,N
1498547255.4,286046993.4,N
1498547275.2,286046997.2,N
1498547295.1,286046999.2,N
1498547296.0,286046999.2,N
1498547315.8,286046998.8,N
1498547335.6,286046995.3,N
1498547355.5,286046996.8,N
1498547375.3,286046998.8,N
1498547395.1,286047000.3,N
1498547415.9,286047000.3,N
1498547435.7,286046999.7,N
1498547455.5,286047006.0,N
1498547475.4,286047003.4,N
1498547495.2,286047004.8,N
1498547515.0,286047005.6,N
1498547515.9,286047005.6,N
1498547535.8,286047005.6,N
1498547555.6,286047004.2,N
1498547575.4,286047002.0,N
1498547595.3,286047003.9,N
1498547615.1,286047003.1,N
1498547616.0,286047003.1,N
1498547635.8,286046999.7,N
1498547655.7,286047002.0,N
1498547675.5,286047002.0,N
1498547695.3,286047002.5,N
1498547715.1,286047000.1,N
1498547735.9,286047003.7,N
1498547755.7,286047000.6,N
1498547775.5,286046999.9,N
1498547795.4,286046999.7,N
1498547815.2,286047004.2,N
1498547835.0,286047001.3,N
1498547835.9,286047001.3,N
1498547855.8,286047001.7,N
1498547875.6,286047002.2,N
1498547895.4,286047005.1,N
1498547915.3,286047006.4,N
1498547935.1,286047002.9,N
1498547936.0,286047002.9,N
1498547955.8,286047004.6,N
1498547975.7,286047003.5,N
1498547995.5,286047002.8,N
1498548015.3,286046999.1,N
1498548035.2,286046997.3,N
1498548055.9,286047002.2,N
1498548075.7,286047003.7,N
1498548095.5,286047001.6,N
1498548115.4,286047001.5,N
1498548135.2,286047004.3,N
1498548155.0,286047000.2,N
1498548155.9,286047000.2,N
1498548175.8,286047001.2,N
1498548195.6,286047000.6,N
1498548215.4,286047000.3,N
1498548235.3,286047000.1,N
1498548255.1,286047002.5,N
1498548275.8,286047003.1,N
1498548295.7,286047003.5,N
1498548315.5,286047001.7,N
1498548335.3,286047004.1,N
1498548355.2,286047003.8,N
1498548375.9,286047001.6,N
1498548395.7,286046999.7,N
1498548415.6,286046999.8,N
1498548435.4,286047003.6,N
1498548455.2,286047001.6,N
1498548475.0,286047002.1,N
1498548475.9,286047002.1,N
1498548495.8,286047002.2,N
1498548515.6,286047002.6,N
1498548535.4,286046999.9,N
1498548555.3,286047002.0,N
1498548575.1,286047001.9,N
1498548595.8,286047002.1,N
1498548615.7,286047003.6,N
1498548635.5,286047003.5,N
1498548655.3,286047003.5,N
1498548675.2,286047001.8,N
1498548695.9,286047001.5,N
1498548715.7,286047002.3,N
1498548735.6,286047002.2,N
1498548755.4,286047002.6,N
1498548775.2,286047000.2,N
1498548795.0,286047000.8,N
1498548796.0,286047000.8,N
1498548815.8,286046999.7,N
1498548835.6,286046999.9,N
1498548855.4,286047000.1,N
1498548875.3,286047000.2,N
1498548895.1,286047002.6,N
1498548915.8,286047000.7,N
1498548935.7,286046999.6,N
1498548955.5,286046997.8,N
1498548975.3,286046997.5,N
1498548995.2,286046997.5,N
1498549015.9,286046995.5,N
1498549035.7,286046997.6,N
1498549055.6,286046997.9,N
1498549075.4,286046996.6,N
1498549095.2,286047001.1,N
1498549115.0,286046999.6,N
1498549115.9,286046999.6,N
1498549135.8,286046998.6,N
1498549155.6,286046997.8,N
1498549175.4,286046995.3,N
1498549195.3,286046997.7,N
1498549215.1,286046997.4,N
1498549235.8,286046994.9,N
1498549255.7,286046996.0,N
1498549275.5,286046993.4,N
1498549295.3,286046993.5,N
1498549315.2,286046995.7,N
1498549335.9,286046997.3,N
1498549355.7,286046995.9,N
1498549375.6,286046993.3,N
1498549395.4,286046994.3,N
1498549415.2,286046994.0,N
1498549435.1,286046994.0,N
1498549436.0,286046994.0,N
1498549455.8,286046993.6,N
1498549475.6,286046997.9,N
1498549495.4,286046999.5,N
1498549515.3,286046995.0,N
1498549535.1,286046995.1,N
1498549555.9,286046995.7,N
1498549575.7,286046995.7,N
1498549595.6,286046998.0,N
1498549615.4,286046995.9,N
1498549635.2,286046994.7,N
1498549655.0,286046994.6,N
1498549656.0,286046994.6,N
1498549675.8,286046995.0,N
1498549695.6,286046998.0,N
1498549715.4,286046994.5,N
1498549735.3,286046994.6,N
1498549755.1,286046993.6,N
1498549775.8,286046996.0,N
1498549795.7,286046997.8,N
1498549815.5,286046997.3,N
1498549835.3,286046996.6,N
1498549855.2,286046999.0,N
1498549875.9,286046996.6,N
1498549895.7,286046997.6,N
1498549915.6,286046995.1,N
1498549935.4,286046995.0,N
1498549955.2,286046997.9,N
1498549975.0,286046997.6,N
1498549976.0,286046997.6,N
1498549995.8,286046994.9,N
1498550015.6,286046995.6,N
1498550035.4,286046993.6,N
1498550055.3,286046996.4,N
1498550075.1,286046998.0,N
1498550095.8,286046993.3,N
1498550115.7,286046996.4,N
1498550135.5,286046997.2,N
1498550155.3,286046996.5,N
1498550175.2,286046997.3,N
1498550195.9,286046994.0,N
1498550215.7,286046994.1,N
1498550235.6,286046997.5,N
1498550255.4,286046995.7,N
1498550275.2,286046995.8,N
1498550295.0,286046993.8,N
1498550296.0,286046993.8,N
1498550315.8,286046994.2,N
1498550335.6,286046993.7,N
1498550355.4,286046992.0,N
1498550375.3,286046994.2,N
1498550395.1,286046993.8,N
